                ,  1.160,  1.308,  1.456,  1.604,  1.751,  1.899,  2.047,  2.194,  2.342,  2.490,  2.638,  2.785,  2.933,  3.081,  3.229,  3.376,  3.524,  3.672,  3.819,  3.967,  4.115,  4.263,  4.410,  4.558,  4.706,  4.853,  5.001,  5.149,  5.297,  5.444
2006/02/11 00:00,  999.0,  999.0,  999.0,  999.0,  999.0,  999.0,  999.0,  999.0,  999.0,  999.0,  999.0,  999.0,  999.0,  999.0,  999.0,  999.0,  999.0,  999.0,  999.0,  999.0,  999.0,  999.0,  999.0,  999.0,  999.0,    4.6,  999.0,  999.0,    3.7,    3.2
2006/02/11 00:10,  999.0,  999.0,  999.0,  999.0,  999.0,  999.0,  999.0,  999.0,  999.0,  999.0,  999.0,  999.0,  999.0,  999.0,  999.0,    7.1,  999.0,  999.0,  999.0,  999.0,  999.0,  999.0,    8.8,    7.0,  999.0,    3.1,    2.1,    2.4,    2.7,    3.3
2006/02/11 00:20,  999.0,  999.0,  999.0,  999.0,  999.0,    6.3,  999.0,  999.0,  999.0,  999.0,    0.7,  999.0,  999.0,  999.0,    5.6,  999.0,  999.0,  999.0,  999.0,  999.0,  999.0,   10.3,  999.0,    7.6,    5.3,    3.8,    4.0,    3.8,    3.9,    3.9
2006/02/11 00:30,  999.0,  999.0,  999.0,  -11.9,  999.0,  999.0,  999.0,  999.0,    2.0,    2.6,    2.9,    4.8,  999.0,  999.0,  999.0,  999.0,  999.0,  999.0,  999.0,  999.0,  999.0,    9.7,  999.0,    8.0,    5.9,    3.7,    5.0,    4.5,  999.0,    5.3
2006/02/11 00:40,  999.0,    0.6,   -0.3,  999.0,  999.0,  999.0,  999.0,  999.0,  999.0,    1.4,  999.0,  999.0,  999.0,  999.0,  999.0,  999.0,  999.0,  999.0,  999.0,  999.0,  999.0,    7.8,  999.0,  999.0,    3.8,    4.2,  999.0,    5.2,    4.3,  999.0
2006/02/11 00:50,    1.5,  999.0,   -2.5,  999.0,  999.0,    1.6,    0.8,   -0.2,    3.8,    2.8,    3.1,    4.2,    3.3,  999.0,    3.3,  999.0,  999.0,  999.0,  999.0,  999.0,  999.0,    5.6,    9.0,    6.5,    2.0,    3.2,    1.2,    4.2,    4.9,  999.0
2006/02/11 01:00,  999.0,  999.0,  999.0,   16.2,    0.6,  -15.4,   -8.6,   -2.7,   -5.5,   -2.4,    3.7,    4.9,    5.9,    6.9,  999.0,    7.4,    7.2,  999.0,  999.0,  999.0,  999.0,    8.2,    8.5,    5.4,    3.9,    2.9,    3.7,    4.8,    5.4,    4.6
2006/02/11 01:10,   -0.6,    2.5,   -1.0,    0.1,    1.5,    1.6,    1.1,    3.3,  999.0,    4.7,    5.1,    4.3,    5.8,    5.8,    5.1,    5.0,    6.0,    5.6,    7.3,    6.8,    8.5,    9.1,  999.0,    6.5,    3.8,    2.2,    3.4,    4.3,    4.8,    4.1
2006/02/11 01:20,   -0.2,    1.4,    0.2,    1.0,  999.0,   -0.6,  999.0,  999.0,  999.0,  999.0,  999.0,    6.6,    6.8,    8.1,    5.9,    5.5,    6.4,    7.4,    7.5,    7.8,    8.4,    8.8,    8.2,    5.7,    3.8,  999.0,    2.9,    3.5,    4.1,    3.8
2006/02/11 01:30,  999.0,  999.0,  999.0,  999.0,  999.0,  999.0,  999.0,  999.0,  999.0,  999.0,  999.0,  999.0,  999.0,  999.0,  999.0,  999.0,    6.3,    7.6,    6.7,    7.7,    9.6,    8.5,  999.0,  999.0,  999.0,  999.0,  999.0,  999.0,  999.0,    4.1
2006/02/11 01:40,    6.4,   -0.2,  999.0,   -1.2,  999.0,  999.0,  999.0,  999.0,    2.4,  999.0,  999.0,  999.0,  999.0,  999.0,  999.0,  999.0,  999.0,  999.0,  999.0,  999.0,  999.0,    8.8,  999.0,  999.0,  999.0,  999.0,  999.0,  999.0,    4.4,    4.1
2006/02/11 01:50,  999.0,  999.0,  999.0,  999.0,    2.7,  999.0,    4.2,    2.0,    2.2,  999.0,   -0.0,    1.9,  999.0,   -1.8,  999.0,  999.0,  999.0,  999.0,  999.0,  999.0,  999.0,  999.0,    2.6,    1.7,    0.9,    1.4,    2.8,    2.4,  999.0,  999.0
2006/02/11 02:00,  999.0,  999.0,  999.0,  999.0,  999.0,  999.0,  999.0,    2.4,  999.0,    2.0,  999.0,  999.0,  999.0,  999.0,  999.0,  999.0,  999.0,  999.0,  999.0,  999.0,  999.0,  999.0,    1.1,    1.0,    1.4,    0.7,  999.0,    2.7,    3.9,    4.7
2006/02/11 02:10,   -1.1,  999.0,  999.0,  999.0,  999.0,    5.3,    1.0,   -3.4,    0.5,    1.8,    4.0,  999.0,  999.0,  999.0,  999.0,    8.0,    7.0,    8.8,    7.5,    9.2,  999.0,    5.5,    3.6,    3.5,    1.2,    1.1,    1.3,    2.3,    3.7,    4.4
2006/02/11 02:20,  999.0,  999.0,  999.0,   13.2,  999.0,   -0.5,    2.6,    0.9,    1.4,    1.0,    1.3,    7.4,    7.9,  999.0,  999.0,  999.0,    9.8,    9.4,   10.9,   10.1,    7.6,    5.2,    3.6,    2.4,    1.8,    2.1,    0.6,    2.6,  999.0,  999.0
2006/02/11 02:30,  999.0,  999.0,  999.0,   -1.7,  999.0,  999.0,  999.0,  999.0,    1.2,    1.3,   -1.0,  999.0,  999.0,    6.2,  999.0,  999.0,  999.0,  999.0,  999.0,  999.0,  999.0,  999.0,  999.0,    3.5,    3.2,  999.0,  999.0,  999.0,  999.0,  999.0
2006/02/11 02:40,   -1.9,  999.0,  999.0,    6.0,  999.0,    4.5,    6.0,  999.0,   -0.5,    3.8,  999.0,  999.0,    5.8,    7.4,  999.0,    7.3,    9.3,    8.7,  999.0,  999.0,  999.0,  999.0,  999.0,    0.6,  999.0,  999.0,  999.0,  999.0,  999.0,  999.0
2006/02/11 02:50,  999.0,    1.3,  999.0,  999.0,    6.0,   -3.8,  999.0,    0.5,  999.0,    4.9,  999.0,  999.0,    6.3,    7.6,    8.0,    8.1,    7.8,  999.0,  999.0,  999.0,  999.0,  999.0,  999.0,  999.0,  999.0,  999.0,  999.0,  999.0,  999.0,  999.0
2006/02/11 03:00,  999.0,  999.0,  999.0,  999.0,  999.0,  999.0,    2.9,    3.5,   -2.7,   -1.0,    3.5,    5.9,    6.9,    8.1,    7.0,    7.6,  999.0,  999.0,  999.0,  999.0,  999.0,    6.9,  999.0,  999.0,  999.0,  999.0,  999.0,  999.0,  999.0,  999.0
2006/02/11 03:10,  999.0,  999.0,  999.0,  999.0,  999.0,  999.0,    1.3,  999.0,  999.0,  999.0,    4.0,    6.5,    6.0,    7.6,    7.6,    8.9,  999.0,  999.0,  999.0,  999.0,    5.9,    7.5,  999.0,  999.0,  999.0,  999.0,  999.0,  999.0,  999.0,  999.0
2006/02/11 03:20,  999.0,   -4.7,  999.0,  999.0,  999.0,    1.4,    3.2,    3.7,    2.2,  999.0,    4.6,    6.7,    6.1,    7.6,    8.5,    8.1,  999.0,  999.0,  999.0,  999.0,    3.9,    6.0,  999.0,  999.0,  999.0,    2.3,  999.0,    0.6,  999.0,  999.0
2006/02/11 03:30,   -0.2,  999.0,   -1.0,   -1.9,    1.3,    3.0,   -0.4,    2.6,    3.5,  999.0,    4.0,    6.3,  999.0,    7.3,    8.3,    8.6,    7.3,    7.7,  999.0,  999.0,  999.0,  999.0,  999.0,  999.0,  999.0,  999.0,    2.8,  999.0,  999.0,  999.0
2006/02/11 03:40,   -2.0,  999.0,  999.0,  999.0,    1.5,    1.4,  999.0,  999.0,   -1.9,  999.0,    3.3,  999.0,  999.0,    7.4,    8.6,    8.0,    9.1,  999.0,  999.0,  999.0,  999.0,  999.0,  999.0,  999.0,  999.0,  999.0,  999.0,  999.0,  999.0,  999.0
2006/02/11 03:50,   -0.8,  999.0,  999.0,  999.0,    1.8,   -2.6,  999.0,  999.0,  999.0,  999.0,  999.0,    6.3,  999.0,    7.3,    7.7,  999.0,  999.0,  999.0,  999.0,  999.0,  999.0,  999.0,  999.0,  999.0,  999.0,  999.0,  999.0,  999.0,  999.0,  999.0
2006/02/11 04:00,    1.5,    4.2,  999.0,    1.9,    0.6,    1.5,  999.0,    2.4,  999.0,  999.0,    4.9,  999.0,    6.3,  999.0,  999.0,  999.0,    8.0,  999.0,    8.0,    7.5,  999.0,  999.0,  999.0,  999.0,  999.0,  999.0,  999.0,  999.0,  999.0,  999.0
2006/02/11 04:10,    0.1,  999.0,  999.0,    1.8,  999.0,    3.1,  999.0,    0.9,  999.0,    4.6,    4.1,    6.7,  999.0,    6.5,  999.0,  999.0,  999.0,  999.0,    5.2,    7.0,  999.0,    6.3,  999.0,  999.0,  999.0,  999.0,  999.0,  999.0,  999.0,    3.2
2006/02/11 04:20,    1.3,    1.6,  999.0,    3.1,  999.0,  999.0,    1.5,  999.0,  999.0,    5.3,    5.3,  999.0,    7.0,    6.9,  999.0,  999.0,  999.0,  999.0,    7.8,    8.2,    7.3,    7.1,  999.0,  999.0,  999.0,  999.0,  999.0,  999.0,  999.0,  999.0
2006/02/11 04:30,    0.4,   -3.1,  999.0,   -3.9,    1.9,  999.0,  999.0,    2.6,    3.9,    5.1,    5.5,    6.0,  999.0,  999.0,    6.4,    8.1,  999.0,  999.0,  999.0,    7.5,  999.0,    6.8,    6.8,  999.0,  999.0,  999.0,  999.0,  999.0,  999.0,  999.0
2006/02/11 04:40,    4.2,   -2.7,    0.0,  999.0,  999.0,   -0.4,    2.0,  999.0,    3.7,    3.1,    3.8,  999.0,  999.0,  999.0,  999.0,  999.0,  999.0,  999.0,    7.3,  999.0,  999.0,  999.0,  999.0,  999.0,  999.0,  999.0,  999.0,  999.0,  999.0,  999.0
2006/02/11 04:50,   -1.8,   -0.6,    1.4,  999.0,    0.4,    2.2,    1.1,  999.0,  999.0,  999.0,    4.9,    6.2,  999.0,    2.7,  999.0,  999.0,  999.0,  999.0,  999.0,  999.0,  999.0,  999.0,  999.0,  999.0,  999.0,  999.0,  999.0,  999.0,  999.0,  999.0
2006/02/11 05:00,    1.0,    2.0,   -0.1,  999.0,  999.0,    2.2,    1.3,    2.7,    0.9,  999.0,  999.0,  999.0,  999.0,    6.0,    5.6,    6.5,  999.0,  999.0,  999.0,  999.0,    7.5,    8.2,  999.0,  999.0,  999.0,  999.0,  999.0,  999.0,  999.0,  999.0
2006/02/11 05:10,    1.7,  999.0,  999.0,  999.0,    2.2,    2.4,    2.4,    3.0,  999.0,  999.0,    4.0,  999.0,    5.5,    6.2,  999.0,  999.0,  999.0,    5.2,    7.3,    7.1,  999.0,  999.0,  999.0,  999.0,  999.0,  999.0,  999.0,  999.0,  999.0,  999.0
2006/02/11 05:20,    0.6,   -0.0,   -1.0,    1.8,    1.9,    2.8,    2.5,    1.5,  999.0,  999.0,  999.0,    5.1,    6.1,  999.0,  999.0,  999.0,  999.0,    6.4,  999.0,  999.0,    8.5,    8.3,  999.0,  999.0,  999.0,  999.0,  999.0,  999.0,  999.0,  999.0
2006/02/11 05:30,    1.4,   -3.4,    0.0,   -1.2,    1.8,    2.3,    2.5,    2.6,    3.5,    6.1,    5.6,    5.1,    5.1,  999.0,    6.5,  999.0,  999.0,    7.4,    7.5,    8.2,  999.0,    7.9,  999.0,  999.0,  999.0,  999.0,  999.0,  999.0,  999.0,  999.0
2006/02/11 05:40,    1.2,    0.8,   -2.5,   -3.9,    1.7,    1.7,    2.0,    1.8,    2.8,    3.5,    4.4,    4.9,  999.0,  999.0,  999.0,  999.0,  999.0,    6.6,    7.9,    8.4,  999.0,    8.3,    8.7,  999.0,  999.0,  999.0,  999.0,  999.0,  999.0,  999.0
2006/02/11 05:50,    0.3,    1.7,   -1.7,  999.0,   -0.8,   -0.1,    1.4,    1.7,    1.9,    0.9,    4.1,    4.3,    5.8,    7.4,    4.3,  999.0,  999.0,  999.0,    7.0,    8.1,    7.4,  999.0,    6.7,  999.0,  999.0,  999.0,  999.0,  999.0,  999.0,  999.0
2006/02/11 06:00,    0.5,    0.6,   -1.9,   -1.7,   -0.3,   -3.5,   -0.8,    0.6,    2.5,    3.9,    4.9,    5.1,    5.8,    7.1,    5.3,    6.1,  999.0,  999.0,    7.7,    6.9,    7.3,    8.4,  999.0,  999.0,  999.0,  999.0,  999.0,  999.0,  999.0,  999.0
2006/02/11 06:10,   -7.5,  999.0,  999.0,  999.0,   -2.1,   -3.1,    0.3,    0.2,    2.7,    3.0,    5.2,    6.9,    6.3,    6.7,    4.1,    8.3,    6.5,    9.0,  999.0,  999.0,    8.9,    9.4,    9.5,  999.0,  999.0,  999.0,  999.0,  999.0,  999.0,  999.0
2006/02/11 06:20,    1.7,    1.2,   -4.1,  999.0,    0.9,    1.0,   -1.2,   -1.3,    4.8,    6.3,    6.8,    6.0,    6.0,    5.0,  999.0,  999.0,  999.0,  999.0,    6.0,    6.9,    6.9,    7.2,    6.8,  999.0,  999.0,  999.0,  999.0,  999.0,  999.0,  999.0
2006/02/11 06:30,   -1.8,  999.0,  999.0,  999.0,   -2.2,    2.8,  999.0,    4.9,    3.1,    4.6,    5.1,    6.3,    6.4,  999.0,  999.0,  999.0,  999.0,  999.0,    8.4,    8.2,    7.0,    7.5,    8.2,  999.0,  999.0,  999.0,  999.0,  999.0,  999.0,  999.0
2006/02/11 06:40,  999.0,    3.5,  999.0,    1.7,    2.1,    3.5,   -1.4,   -0.6,    0.2,    1.1,    4.7,    5.7,    6.7,  999.0,  999.0,  999.0,  999.0,    6.9,  999.0,  999.0,    8.3,    7.6,    8.7,  999.0,  999.0,  999.0,  999.0,  999.0,  999.0,  999.0
2006/02/11 06:50,   -1.0,    0.8,   -2.4,  999.0,    1.7,  999.0,    2.2,    3.0,    3.7,    3.4,    3.6,    6.3,    6.7,    8.1,  999.0,    5.7,  999.0,    7.1,    7.7,    6.6,    6.4,    7.8,    7.6,    7.4,  999.0,  999.0,  999.0,  999.0,  999.0,  999.0
2006/02/11 07:00,    0.5,  999.0,    1.4,    1.8,  999.0,  999.0,    3.1,    2.3,    3.3,    6.9,    5.6,    9.0,    5.4,    7.7,    8.2,    7.9,    7.4,    8.3,    7.8,    8.7,    9.3,    8.0,    5.8,  999.0,    7.4,  999.0,  999.0,  999.0,  999.0,  999.0
2006/02/11 07:10,    0.8,    0.5,    1.0,    1.1,    2.0,   -6.0,    2.7,    3.0,    5.0,    4.8,    7.6,    7.3,    6.8,    8.9,    7.5,    5.6,    5.6,    6.7,    7.8,    7.2,    8.4,    7.3,    6.8,   11.5,  999.0,    1.1,  999.0,  999.0,  999.0,  999.0
2006/02/11 07:20,    0.8,    0.8,    1.8,    2.5,    1.4,    2.4,    2.9,    3.4,    3.7,    5.9,    5.8,    6.4,    6.8,    5.9,    5.5,    6.0,    6.4,    4.9,    5.4,    5.5,    5.7,    6.4,    5.8,    6.6,  999.0,  999.0,  999.0,  999.0,  999.0,  999.0
2006/02/11 07:30,  999.0,  999.0,  999.0,    2.2,  999.0,  999.0,  999.0,    3.7,    4.5,    5.9,  999.0,    6.5,    9.2,    5.4,  999.0,    7.2,    7.4,  999.0,  999.0,    6.6,    6.9,    6.8,    6.5,  999.0,  999.0,  999.0,  999.0,  999.0,  999.0,  999.0
2006/02/11 07:40,  999.0,  999.0,  999.0,  999.0,  999.0,  999.0,  999.0,  999.0,  999.0,  999.0,    3.9,    4.3,    4.2,  999.0,  999.0,  999.0,    7.0,  999.0,  999.0,  999.0,  999.0,  999.0,    7.0,  999.0,  999.0,  999.0,  999.0,  999.0,  999.0,  999.0
2006/02/11 07:50,    0.4,  999.0,    1.6,    1.7,  999.0,  999.0,  999.0,  999.0,    3.0,    4.3,    4.1,    5.5,  999.0,  999.0,    6.7,  999.0,    7.2,  999.0,  999.0,  999.0,  999.0,  999.0,  999.0,  999.0,  999.0,  999.0,  999.0,  999.0,  999.0,  999.0
2006/02/11 08:00,    0.1,    3.0,  999.0,  999.0,  999.0,    4.0,  999.0,    2.9,  999.0,    4.9,    6.0,  999.0,  999.0,  999.0,  999.0,  999.0,    5.8,    6.1,    6.1,    4.4,    2.9,    3.2,  999.0,  999.0,  999.0,  999.0,  999.0,  999.0,  999.0,  999.0
2006/02/11 08:10,  999.0,  999.0,  999.0,  999.0,  999.0,  999.0,    3.3,  999.0,  999.0,    3.6,  999.0,    4.9,  999.0,  999.0,  999.0,  999.0,    6.0,    5.5,  999.0,    5.1,  999.0,  999.0,  999.0,  999.0,  999.0,  999.0,  999.0,  999.0,  999.0,  999.0
2006/02/11 08:20,    2.5,    0.5,    0.5,  999.0,    6.1,    2.2,    3.7,    8.0,  999.0,  999.0,  999.0,    4.3,  999.0,  999.0,  999.0,  999.0,  999.0,    4.4,    6.4,    6.6,  999.0,  999.0,  999.0,  999.0,  999.0,  999.0,  999.0,  999.0,  999.0,  999.0
2006/02/11 08:30,  999.0,    3.4,   -0.9,   -1.6,  999.0,  999.0,  999.0,    2.9,  999.0,  999.0,  999.0,  999.0,  999.0,  999.0,  999.0,  999.0,  999.0,    4.3,  999.0,    5.7,  999.0,  999.0,  999.0,  999.0,  999.0,  999.0,  999.0,  999.0,  999.0,  999.0
2006/02/11 08:40,  999.0,   -1.1,  999.0,  999.0,   -1.4,  999.0,  999.0,    2.8,  999.0,  999.0,  999.0,  999.0,  999.0,  999.0,  999.0,  999.0,  999.0,  999.0,  999.0,  999.0,  999.0,  999.0,  999.0,  999.0,  999.0,  999.0,  999.0,  999.0,  999.0,  999.0
2006/02/11 08:50,  999.0,  999.0,  999.0,   -0.4,    1.4,    1.8,    3.5,    3.8,  999.0,  999.0,  999.0,    6.4,    4.2,  999.0,  999.0,  999.0,  999.0,  999.0,  999.0,  999.0,  999.0,  999.0,  999.0,  999.0,  999.0,  999.0,  999.0,  999.0,  999.0,  999.0
2006/02/11 09:00,    1.1,    0.6,   -1.4,  999.0,    0.9,    2.5,    3.0,    2.6,  999.0,  999.0,  999.0,  999.0,  999.0,    3.3,  999.0,  999.0,  999.0,  999.0,  999.0,  999.0,  999.0,  999.0,  999.0,  999.0,  999.0,  999.0,  999.0,  999.0,  999.0,  999.0
2006/02/11 09:10,    1.4,    2.7,    0.0,  999.0,    2.3,    2.4,    1.5,  999.0,  999.0,  999.0,  999.0,  999.0,  999.0,  999.0,  999.0,  999.0,  999.0,  999.0,  999.0,  999.0,  999.0,  999.0,  999.0,  999.0,  999.0,  999.0,  999.0,  999.0,  999.0,  999.0
2006/02/11 09:20,   -0.4,   -5.7,   -2.8,   -3.2,  999.0,  999.0,  999.0,  999.0,  999.0,  999.0,    4.5,  999.0,  999.0,  999.0,  999.0,  999.0,  999.0,  999.0,  999.0,  999.0,  999.0,  999.0,  999.0,  999.0,  999.0,  999.0,  999.0,  999.0,  999.0,  999.0
2006/02/11 09:30,    1.4,   -4.3,  999.0,    2.7,  999.0,    2.3,  999.0,  999.0,    4.4,  999.0,    4.0,    4.9,  999.0,  999.0,  999.0,  999.0,    7.3,  999.0,  999.0,  999.0,  999.0,  999.0,  999.0,  999.0,  999.0,  999.0,  999.0,  999.0,  999.0,  999.0
2006/02/11 09:40,  999.0,  999.0,  999.0,  999.0,  999.0,  999.0,  999.0,  999.0,  999.0,  999.0,    4.4,    4.8,    5.4,    6.7,    3.6,  999.0,    8.0,  999.0,    8.1,  999.0,  999.0,  999.0,  999.0,  999.0,  999.0,  999.0,  999.0,  999.0,  999.0,  999.0
2006/02/11 09:50,   -0.3,    1.6,   -0.1,  999.0,  999.0,  999.0,    5.5,  999.0,  999.0,    3.0,    4.2,    4.6,    4.9,    3.3,    6.4,    7.4,    7.8,  999.0,  999.0,  999.0,  999.0,  999.0,  999.0,  999.0,  999.0,  999.0,  999.0,  999.0,  999.0,  999.0
2006/02/11 10:00,  999.0,    2.9,    1.6,  999.0,  999.0,    2.2,    4.4,  999.0,    3.4,    3.8,    4.3,    5.8,    6.9,  999.0,    5.9,  999.0,  999.0,  999.0,  999.0,  999.0,  999.0,  999.0,  999.0,  999.0,  999.0,  999.0,  999.0,  999.0,  999.0,  999.0
2006/02/11 10:10,    1.8,    2.1,  999.0,  999.0,  999.0,  999.0,  999.0,    3.9,  999.0,  999.0,  999.0,  999.0,    5.5,  999.0,    6.7,    7.9,    8.2,    8.1,    8.8,    5.6,  999.0,  999.0,  999.0,  999.0,  999.0,  999.0,  999.0,  999.0,  999.0,  999.0
2006/02/11 10:20,    0.1,    2.6,  999.0,  999.0,  999.0,  999.0,    2.1,  999.0,    3.2,  999.0,  999.0,  999.0,    4.7,    4.8,    5.8,  999.0,  999.0,  999.0,  999.0,  999.0,  999.0,  999.0,  999.0,  999.0,  999.0,  999.0,  999.0,  999.0,  999.0,  999.0
2006/02/11 10:30,  999.0,    3.3,  999.0,  999.0,  999.0,    2.2,    3.2,  999.0,    6.2,    4.4,    3.9,    5.0,    5.8,    6.3,    5.0,    6.2,    7.0,  999.0,  999.0,  999.0,  999.0,  999.0,  999.0,  999.0,  999.0,  999.0,  999.0,  999.0,  999.0,  999.0
2006/02/11 10:40,  999.0,  999.0,  999.0,  999.0,  999.0,    1.0,  999.0,    3.7,    4.8,    5.2,    5.8,    6.2,    6.6,    6.3,    5.8,  999.0,    7.0,  999.0,  999.0,  999.0,  999.0,  999.0,  999.0,  999.0,  999.0,  999.0,  999.0,  999.0,  999.0,  999.0
2006/02/11 10:50,  999.0,    1.5,   -0.5,    1.4,  999.0,  999.0,    3.5,    4.7,    6.0,    4.7,    6.1,    6.6,    6.4,    5.9,  999.0,  999.0,    6.8,  999.0,  999.0,  999.0,  999.0,  999.0,  999.0,  999.0,  999.0,  999.0,  999.0,  999.0,  999.0,  999.0
2006/02/11 11:00,  999.0,  999.0,  999.0,  999.0,  999.0,  999.0,    4.1,    3.4,    4.1,    5.6,    5.7,    6.0,    6.5,    5.5,    5.5,    6.1,    6.6,  999.0,    7.4,    6.7,  999.0,  999.0,  999.0,  999.0,  999.0,  999.0,  999.0,  999.0,  999.0,  999.0
2006/02/11 11:10,  999.0,   -0.9,    5.8,   -0.0,    0.9,  999.0,    5.6,    3.9,    2.9,  999.0,    5.7,    6.0,    5.9,    5.6,  999.0,  999.0,    7.3,    8.0,  999.0,    7.6,  999.0,  999.0,  999.0,  999.0,  999.0,  999.0,  999.0,  999.0,  999.0,  999.0
2006/02/11 11:20,  999.0,   -1.9,  999.0,  999.0,  999.0,  999.0,    2.2,    2.2,    1.7,    5.4,    5.0,    5.2,    6.2,    5.8,    5.2,  999.0,  999.0,  999.0,    8.0,    7.3,  999.0,  999.0,  999.0,  999.0,  999.0,  999.0,  999.0,  999.0,  999.0,  999.0
2006/02/11 11:30,    0.3,    0.1,    0.1,    0.1,  999.0,  999.0,    3.5,    8.2,    3.4,    3.8,    4.0,    5.2,    6.0,    5.7,    5.9,    7.6,    8.0,  999.0,    8.1,    6.7,    7.6,  999.0,  999.0,  999.0,  999.0,  999.0,  999.0,  999.0,  999.0,  999.0
2006/02/11 11:40,  999.0,  999.0,    0.1,    5.8,  999.0,  999.0,    9.2,    6.4,    7.5,    3.5,    5.8,    5.5,    5.5,    6.2,    5.1,  999.0,  999.0,  999.0,  999.0,  999.0,    6.7,  999.0,  999.0,  999.0,  999.0,  999.0,  999.0,  999.0,  999.0,  999.0
2006/02/11 11:50,  999.0,    0.3,   -0.7,    0.4,   -2.9,    2.9,    0.4,   -3.2,    4.1,    2.5,  999.0,    5.1,    6.3,  999.0,    7.3,    5.8,  999.0,  999.0,  999.0,  999.0,    6.8,  999.0,  999.0,  999.0,  999.0,  999.0,  999.0,  999.0,  999.0,  999.0
2006/02/11 12:00,  999.0,    0.3,    0.0,   -0.1,    1.9,  999.0,    4.3,    3.1,    3.7,    4.1,    4.5,    6.0,    6.1,    7.2,    8.0,  999.0,  999.0,  999.0,    6.6,    8.1,  999.0,  999.0,  999.0,  999.0,  999.0,  999.0,  999.0,  999.0,  999.0,  999.0
2006/02/11 12:10,    0.6,    2.0,    0.9,    1.3,   -1.6,  999.0,    1.9,    3.0,    3.4,    3.3,    4.8,    5.6,    5.9,    6.6,    7.6,  999.0,  999.0,    3.5,  999.0,  999.0,  999.0,    6.7,  999.0,  999.0,  999.0,  999.0,  999.0,  999.0,  999.0,  999.0
2006/02/11 12:20,    0.9,    1.1,   -0.9,  999.0,    1.3,  999.0,    1.5,    4.1,    3.4,    4.3,  999.0,    3.2,  999.0,    6.9,    9.0,    7.6,  999.0,  999.0,  999.0,  999.0,  999.0,  999.0,  999.0,  999.0,  999.0,  999.0,  999.0,  999.0,  999.0,  999.0
2006/02/11 12:30,   -0.5,    4.2,  999.0,    0.4,    0.0,    2.5,  999.0,  999.0,    3.0,  999.0,  999.0,    3.5,    7.8,    7.1,  999.0,    9.2,  999.0,  999.0,  999.0,  999.0,  999.0,  999.0,  999.0,  999.0,  999.0,  999.0,  999.0,  999.0,  999.0,  999.0
2006/02/11 12:40,    2.7,    1.6,    1.8,    1.4,    1.8,    2.6,    2.5,  999.0,    4.5,  999.0,    5.4,  999.0,    3.7,    6.6,  999.0,    7.5,    7.2,  999.0,  999.0,  999.0,  999.0,  999.0,  999.0,  999.0,  999.0,  999.0,  999.0,  999.0,  999.0,  999.0
2006/02/11 12:50,  999.0,    1.2,    1.4,    1.8,    1.9,    2.0,  999.0,    3.7,    3.8,    4.4,    5.8,  999.0,  999.0,    5.5,  999.0,    6.0,  999.0,  999.0,  999.0,  999.0,    6.7,  999.0,  999.0,  999.0,  999.0,  999.0,  999.0,  999.0,  999.0,  999.0
2006/02/11 13:00,    2.2,    2.6,    1.7,    1.5,    1.5,    2.3,    2.9,    2.6,    4.5,    5.0,    6.0,  999.0,    6.0,    4.5,    7.4,  999.0,  999.0,  999.0,  999.0,  999.0,    4.8,  999.0,  999.0,  999.0,  999.0,  999.0,  999.0,  999.0,  999.0,  999.0
2006/02/11 13:10,    2.3,  999.0,    1.6,  999.0,  999.0,    2.9,    2.5,  999.0,    3.0,    4.9,    4.0,    5.8,    5.4,    5.3,    6.8,  999.0,  999.0,  999.0,  999.0,  999.0,    6.1,  999.0,  999.0,  999.0,  999.0,  999.0,  999.0,  999.0,  999.0,  999.0
2006/02/11 13:20,    1.0,    2.0,    1.7,  999.0,    2.4,    2.0,    3.7,    2.7,    3.6,    4.7,    5.6,  999.0,    6.8,    5.1,  999.0,  999.0,  999.0,  999.0,  999.0,  999.0,  999.0,  999.0,  999.0,  999.0,  999.0,  999.0,  999.0,  999.0,  999.0,  999.0
2006/02/11 13:30,    3.6,    1.9,  999.0,    1.7,    2.2,  999.0,    4.7,    2.4,    3.4,  999.0,    5.3,  999.0,    4.8,    5.6,  999.0,  999.0,  999.0,  999.0,  999.0,  999.0,  999.0,  999.0,  999.0,  999.0,  999.0,  999.0,  999.0,  999.0,  999.0,  999.0
2006/02/11 13:40,    4.3,  999.0,    2.4,    3.0,    3.4,    3.0,  999.0,    3.9,    3.5,    5.1,    5.4,    4.4,  999.0,  999.0,  999.0,  999.0,  999.0,  999.0,  999.0,    4.8,  999.0,  999.0,  999.0,  999.0,  999.0,  999.0,  999.0,  999.0,  999.0,  999.0
2006/02/11 13:50,    3.9,  999.0,    5.8,    3.2,    2.7,  999.0,    3.9,    3.5,  999.0,    5.4,  999.0,  999.0,  999.0,  999.0,    3.7,  999.0,  999.0,  999.0,  999.0,  999.0,    6.6,  999.0,  999.0,  999.0,    0.5,  999.0,  999.0,  999.0,  999.0,  999.0
2006/02/11 14:00,    4.2,    5.6,    3.0,    3.3,    3.9,  999.0,    3.5,    4.1,  999.0,    3.9,  999.0,  999.0,  999.0,    1.8,    4.3,    2.0,  999.0,  999.0,    1.4,  999.0,    3.3,  999.0,  999.0,    0.6,    0.6,  999.0,  999.0,  999.0,  999.0,  999.0
2006/02/11 14:10,    2.6,    4.6,    3.7,    1.6,    3.4,    3.0,    3.2,    4.3,  999.0,  999.0,    5.3,  999.0,  999.0,  999.0,    1.3,    1.0,  999.0,  999.0,  999.0,  999.0,  999.0,  999.0,  999.0,    0.4,    1.6,  999.0,  999.0,  999.0,  999.0,  999.0
2006/02/11 14:20,    2.7,    3.1,    3.3,    2.1,    2.4,    4.9,    3.5,    5.7,  999.0,  999.0,  999.0,  999.0,    6.3,    4.2,    4.4,  999.0,  999.0,  999.0,  999.0,  999.0,    1.8,  999.0,  999.0,    0.6,    0.2,  999.0,  999.0,  999.0,  999.0,  999.0
2006/02/11 14:30,    1.7,    4.0,    4.2,    4.2,    5.2,    3.7,    3.0,    4.7,    5.6,    5.5,    5.5,    6.5,    5.6,    5.5,    5.3,    2.9,  999.0,  999.0,  999.0,  999.0,    0.4,  999.0,  999.0,    2.4,    2.6,  999.0,  999.0,  999.0,  999.0,  999.0
2006/02/11 14:40,    4.6,    2.7,    3.8,    3.8,    3.3,    4.3,    3.6,    4.4,    4.4,    4.1,    5.1,    5.3,    6.0,    4.8,    6.0,    5.2,    8.2,    6.9,  999.0,    0.9,  999.0,  999.0,  999.0,  999.0,  999.0,  999.0,  999.0,  999.0,  999.0,  999.0
2006/02/11 14:50,    4.7,    5.5,    3.0,    5.2,    6.5,    6.7,    4.8,    5.0,    4.0,    5.9,  999.0,    4.0,  999.0,    2.7,    2.0,  999.0,  999.0,  999.0,  999.0,    0.5,  999.0,  999.0,   -0.7,   -1.5,  999.0,  999.0,  999.0,  999.0,  999.0,  999.0
2006/02/11 15:00,    2.6,    3.6,    3.4,    3.8,    3.9,    4.0,    3.2,    5.5,    5.2,    5.6,    6.6,    4.8,    5.4,    2.8,    3.4,    1.6,  999.0,  999.0,   -0.0,  999.0,  999.0,  999.0,  999.0,    0.1,    1.0,  999.0,  999.0,  999.0,  999.0,  999.0
2006/02/11 15:10,    0.5,    1.4,    3.2,    4.7,    4.8,    4.5,    3.8,    4.3,    5.8,    5.7,    9.0,    8.1,    7.2,    6.9,    3.3,    3.4,    5.1,    7.0,    7.0,  999.0,    1.6,  999.0,  999.0,   11.6,    8.5,    9.4,    4.4,  999.0,  999.0,  999.0
2006/02/11 15:20,    4.4,    1.2,    2.5,    5.3,    4.4,   10.6,    4.1,    6.7,    5.2,    2.7,    2.9,    4.7,    5.2,    8.1,    8.5,   10.0,    8.2,    5.0,    4.4,   10.4,    8.8,    6.9,   10.5,    9.5,    9.8,   12.9,   12.9,  999.0,  999.0,  999.0
2006/02/11 15:30,    4.8,    6.5,    5.3,    2.7,    5.8,    4.4,    2.9,    4.0,    6.0,    4.8,    5.5,    3.4,    3.7,    4.8,    5.8,    5.0,    7.3,    8.0,    3.8,   -1.6,    3.4,    3.7,    5.5,    6.5,    1.7,    3.4,  999.0,   -9.7,  999.0,  999.0
2006/02/11 15:40,    3.2,    3.1,    2.2,    3.8,    4.9,    4.9,    7.3,    7.0,    5.0,    6.4,    6.0,    4.7,    1.1,    3.6,    7.0,    6.0,    7.1,    6.3,    6.1,    7.2,    7.3,    6.0,    4.7,  999.0,    4.6,  999.0,  999.0,  999.0,  999.0,  999.0
2006/02/11 15:50,    3.5,    4.6,    5.6,    3.8,    4.1,    4.1,    3.9,    5.8,    8.4,    5.8,    1.9,    3.6,    3.7,    6.9,    6.1,    2.6,    2.8,    6.0,    8.8,    6.6,    5.6,  999.0,  999.0,  999.0,  999.0,  999.0,  999.0,  999.0,  999.0,  999.0
2006/02/11 16:00,    1.8,    3.1,    3.5,    4.1,    5.0,    4.6,    5.5,    4.9,    4.9,    5.6,    4.4,    4.7,    3.2,    6.7,    7.8,    5.0,    6.9,    6.1,   10.6,   11.8,   10.3,    9.8,   12.7,    9.9,    7.9,  999.0,  999.0,    4.8,    3.0,    3.3
2006/02/11 16:10,    3.9,    4.4,    3.7,    4.1,    4.8,    5.5,    6.5,    6.4,    5.5,    4.6,    5.0,  999.0,    4.9,    5.0,    5.7,    7.2,    6.7,  999.0,    7.5,  999.0,  999.0,    7.7,   10.3,    7.3,    7.5,    6.1,    5.2,    4.9,    3.7,    2.3
2006/02/11 16:20,    4.5,    4.2,    4.4,    4.5,    4.4,    5.7,    3.5,    4.9,  999.0,    3.8,  999.0,    4.3,    4.3,  999.0,    4.3,    6.5,    2.7,  999.0,  999.0,    6.8,  999.0,  999.0,    5.9,    6.5,    5.6,    5.5,    5.5,    4.3,    5.3,    3.4
2006/02/11 16:30,    2.1,    2.9,    4.9,    4.8,    5.5,    4.9,    4.9,    5.5,    5.9,    5.6,    5.2,    5.2,    6.6,    2.4,    3.1,    3.5,  999.0,    5.0,  999.0,    6.5,  999.0,  999.0,    8.1,    7.7,    6.2,    6.1,    4.9,    5.0,    4.4,    2.5
2006/02/11 16:40,    3.0,    4.4,    3.0,    4.7,    4.0,    5.2,    5.4,    4.6,    5.1,    4.9,  999.0,  999.0,  999.0,  999.0,  999.0,  999.0,  999.0,    5.6,    5.3,    6.9,  999.0,  999.0,  999.0,  999.0,  999.0,  999.0,  999.0,  999.0,  999.0,  999.0
2006/02/11 16:50,    3.1,    3.7,    3.4,    5.3,    5.8,    4.4,  999.0,    4.9,    4.3,    3.4,    3.2,    3.9,  999.0,  999.0,  999.0,  999.0,  999.0,    7.1,  999.0,  999.0,    7.8,  999.0,  999.0,  999.0,  999.0,  999.0,  999.0,  999.0,  999.0,  999.0
2006/02/11 17:00,    3.0,    3.6,    4.4,    4.5,    5.2,    3.8,    4.3,    5.2,    4.8,  999.0,    5.0,  999.0,    4.5,  999.0,  999.0,  999.0,    7.7,    7.3,  999.0,  999.0,  999.0,  999.0,    8.1,  999.0,  999.0,  999.0,  999.0,  999.0,  999.0,  999.0
2006/02/11 17:10,    4.5,    3.5,    4.6,    4.7,    5.2,    6.5,  999.0,    4.2,    5.5,  999.0,    3.4,    5.8,    4.5,  999.0,  999.0,  999.0,  999.0,    7.4,  999.0,  999.0,  999.0,  999.0,  999.0,    1.4,  999.0,  999.0,  999.0,  999.0,  999.0,  999.0
2006/02/11 17:20,    2.8,    4.0,    4.9,    3.9,    4.1,    6.4,    5.3,    4.9,    5.6,    5.5,  999.0,  999.0,    3.9,   -1.1,    1.8,   -0.3,  999.0,  999.0,  999.0,  999.0,  999.0,  999.0,  999.0,  999.0,  999.0,  999.0,  999.0,  999.0,  999.0,    3.7
2006/02/11 17:30,    3.2,    4.4,    5.1,    5.8,    4.3,    5.3,    6.3,    5.6,    6.4,  999.0,  999.0,  999.0,  999.0,  999.0,  999.0,  999.0,  999.0,  999.0,  999.0,  999.0,  999.0,  999.0,  999.0,    2.4,  999.0,  999.0,    6.2,    5.5,    3.9,    3.8
2006/02/11 17:40,    3.3,    4.6,    4.9,    4.4,    4.2,    3.5,    4.7,    4.1,    3.4,    3.8,    4.0,    2.1,    3.7,    3.4,    3.8,   -1.7,  999.0,  999.0,    6.2,  999.0,  999.0,  999.0,    5.9,  999.0,    3.0,    5.3,  999.0,    5.3,    3.5,    2.6
2006/02/11 17:50,    2.7,    4.1,    3.7,    3.0,    4.2,    4.3,    5.0,    5.0,    4.3,    4.3,    4.6,  999.0,  999.0,    4.8,    5.0,  999.0,  999.0,  999.0,  999.0,  999.0,  999.0,  999.0,    6.1,    7.1,    6.1,    5.9,    5.8,    4.9,    3.5,    2.7
2006/02/11 18:00,    1.1,    1.1,    3.6,    3.9,    3.4,    4.3,    4.5,    3.2,    4.1,  999.0,    2.8,  999.0,  999.0,    3.9,    4.7,  999.0,    5.4,  999.0,  999.0,  999.0,  999.0,  999.0,  999.0,  999.0,  999.0,  999.0,  999.0,    4.2,    2.7,    2.6
2006/02/11 18:10,    1.4,    2.1,    2.7,    3.4,    3.8,    4.4,    4.9,    4.6,    4.1,    3.3,  999.0,    3.4,  999.0,    6.3,  999.0,  999.0,    6.6,  999.0,  999.0,  999.0,  999.0,  999.0,  999.0,  999.0,  999.0,  999.0,    4.2,    4.7,    2.3,    1.9
2006/02/11 18:20,    2.7,    2.5,    2.0,    2.5,    2.9,    4.1,  999.0,    5.3,    5.0,    5.6,  999.0,  999.0,    5.1,  999.0,    1.3,  999.0,  999.0,  999.0,  999.0,  999.0,  999.0,  999.0,  999.0,  999.0,  999.0,  999.0,    5.9,    4.6,  999.0,  999.0
2006/02/11 18:30,    1.1,    2.4,    2.4,    3.1,    2.0,  999.0,  999.0,    3.8,    4.1,    2.3,  999.0,    5.5,  999.0,    5.3,  999.0,  999.0,    5.5,  999.0,  999.0,  999.0,  999.0,  999.0,  999.0,  999.0,  999.0,    5.6,    5.4,    5.4,    3.3,    2.3
2006/02/11 18:40,  999.0,  999.0,    1.2,    1.8,    3.0,  999.0,    3.1,    3.9,    3.5,  999.0,  999.0,  999.0,    7.3,  999.0,    7.2,    6.6,  999.0,  999.0,  999.0,  999.0,  999.0,  999.0,  999.0,  999.0,  999.0,  999.0,    2.9,    3.4,    3.0,    2.0
2006/02/11 18:50,  999.0,    4.1,  999.0,  999.0,  999.0,  999.0,  999.0,    0.7,    5.3,    3.6,  999.0,  999.0,  999.0,  999.0,    5.8,    7.5,    8.0,    8.5,    9.0,    8.6,  999.0,  999.0,  999.0,  999.0,    5.2,    4.8,    4.5,    4.9,    4.4,    2.7
2006/02/11 19:00,    3.8,  999.0,  999.0,  999.0,  999.0,  999.0,  999.0,  999.0,  999.0,  999.0,  999.0,  999.0,    7.7,  999.0,    6.9,    7.5,    8.6,    8.7,  999.0,  999.0,  999.0,  999.0,    5.6,    6.0,    5.8,    6.0,    5.4,    4.8,    5.1,    3.8
2006/02/11 19:10,    1.8,    2.9,    4.0,    4.3,    5.6,    5.7,  999.0,    4.1,  999.0,  999.0,    8.5,  999.0,  999.0,    7.0,    7.7,    7.8,   10.1,    7.6,    7.1,    9.9,    9.3,  999.0,  999.0,    5.0,    5.8,    6.0,    5.1,    4.9,    4.5,    3.3
2006/02/11 19:20,    1.6,    2.7,    5.1,    3.8,    6.4,    9.2,  999.0,  999.0,    7.5,  999.0,  999.0,    5.9,    6.0,    6.7,    8.0,    7.3,    8.2,    7.1,    7.9,    7.5,    7.5,  999.0,  999.0,  999.0,  999.0,  999.0,  999.0,  999.0,  999.0,  999.0
2006/02/11 19:30,    2.1,  999.0,    6.7,  999.0,  999.0,  999.0,  -12.0,  999.0,  999.0,  999.0,    6.2,    6.5,    7.2,    7.9,    8.0,    8.2,    8.5,    8.3,    8.7,    8.7,    6.8,  999.0,  999.0,  999.0,  999.0,  999.0,  999.0,  999.0,  999.0,  999.0
2006/02/11 19:40,  999.0,    4.0,    4.0,    3.2,    3.6,  999.0,    5.3,    6.0,  999.0,    5.4,    4.9,    5.0,    5.9,    6.9,    6.8,    7.5,    7.5,    8.4,    8.6,    8.3,    6.1,  999.0,  999.0,  999.0,  999.0,  999.0,  999.0,  999.0,  999.0,  999.0
2006/02/11 19:50,    1.3,    3.6,    3.6,    3.7,    4.4,    4.5,    5.1,    5.3,    4.9,    4.9,    4.7,    5.1,    6.1,    6.7,    6.8,    7.2,    7.9,    8.3,    7.9,    7.6,    6.4,  999.0,  999.0,  999.0,  999.0,  999.0,  999.0,  999.0,  999.0,  999.0
2006/02/11 20:00,    0.9,    1.8,    2.7,    3.9,    3.9,    4.1,    4.6,    5.0,    4.7,    4.8,    4.5,    5.0,    6.3,    6.5,    6.6,    7.7,    8.4,    8.2,    8.4,    7.6,    7.8,  999.0,  999.0,  999.0,  999.0,  999.0,  999.0,  999.0,  999.0,  999.0
2006/02/11 20:10,    1.5,    1.7,    2.8,    3.4,    3.2,    4.2,    4.5,    4.6,    5.0,    4.6,    4.2,    5.0,    5.5,    6.2,    6.8,    7.5,    7.6,    7.5,    7.4,    7.0,    5.9,  999.0,  999.0,  999.0,  999.0,  999.0,  999.0,  999.0,  999.0,  999.0
2006/02/11 20:20,    1.4,    2.4,    2.9,    3.6,    4.4,    4.2,    4.6,    4.3,    4.5,    4.2,    4.4,    4.7,    5.5,    6.2,    6.3,    6.7,    7.3,    7.0,    7.3,    6.6,  999.0,  999.0,  999.0,  999.0,  999.0,  999.0,  999.0,  999.0,  999.0,  999.0
2006/02/11 20:30,    1.6,    2.2,    2.8,    3.3,    4.4,    4.9,    4.6,    5.2,    5.3,    5.0,    5.1,    4.8,    5.7,    6.9,    7.4,    7.4,    7.3,    6.5,    6.2,    7.0,    6.7,  999.0,  999.0,  999.0,  999.0,  999.0,  999.0,  999.0,  999.0,  999.0
2006/02/11 20:40,    1.2,    2.5,    2.7,    3.3,    4.2,    4.7,    5.1,    4.5,    4.4,    3.8,    4.7,    6.1,    6.4,    6.8,    6.5,    6.5,    7.0,    6.3,    7.0,    7.5,    9.3,  999.0,  999.0,  999.0,  999.0,  999.0,  999.0,  999.0,  999.0,  999.0
2006/02/11 20:50,    1.7,    2.0,    2.6,    3.5,    4.9,    5.4,    5.4,    5.5,    5.2,    4.7,    6.0,    7.0,    7.1,    6.7,    6.4,    6.3,    6.4,    6.3,    7.1,    8.1,    7.6,  999.0,  999.0,  999.0,  999.0,  999.0,  999.0,  999.0,  999.0,  999.0
2006/02/11 21:00,    2.3,    1.9,    2.3,    3.9,    5.0,    5.4,    6.0,    5.7,    5.8,    5.2,    5.7,    6.4,    7.1,    7.3,    6.9,    7.3,    7.4,    6.5,    7.5,    7.2,    6.0,  999.0,  999.0,  999.0,  999.0,  999.0,  999.0,  999.0,  999.0,  999.0
2006/02/11 21:10,    2.7,    2.6,    2.9,    3.8,    4.8,    5.7,    6.8,    6.3,    5.6,    5.6,    6.1,    6.6,    7.0,    7.1,    7.6,    7.6,    7.0,    6.9,    7.4,    7.9,    7.4,    6.7,  999.0,    5.4,    3.4,    3.5,    4.1,    4.2,    3.6,    3.9
2006/02/11 21:20,    2.6,    3.0,    3.7,    3.9,    4.9,    5.2,    6.0,    6.1,    5.4,    5.6,    6.0,    6.9,    7.2,    7.0,    7.1,    7.4,    7.7,    7.9,    8.6,    8.2,    8.2,    7.7,  999.0,    5.4,    4.1,    4.4,    4.9,    3.8,    3.4,    3.7
2006/02/11 21:30,    3.2,    3.6,    3.2,    4.2,    5.5,    5.3,    5.3,    5.5,    4.4,    4.6,    5.5,    6.5,    6.3,    6.1,    6.2,    6.8,    7.0,    7.7,    9.3,    9.5,    8.2,    7.2,  999.0,    6.6,    4.8,    4.4,  999.0,  999.0,  999.0,  999.0
2006/02/11 21:40,    2.6,    3.2,    3.1,    3.5,    4.8,    4.9,    5.3,    5.3,    5.3,    4.5,    4.9,    5.4,    5.3,    5.4,    6.0,    5.7,    5.8,    5.6,    6.3,    6.7,    6.7,  999.0,  999.0,    6.8,  999.0,  999.0,  999.0,  999.0,    4.3,    3.7
2006/02/11 21:50,    3.6,    3.7,    3.1,    4.2,    4.7,    5.5,    5.5,    5.8,    5.7,    5.0,    4.8,    5.8,    5.5,    5.5,    5.5,    5.4,    6.4,    7.3,    6.5,    5.7,    5.8,    7.0,  999.0,  999.0,  999.0,  999.0,  999.0,  999.0,  999.0,  999.0
2006/02/11 22:00,  999.0,    3.2,    3.6,    5.4,    5.2,    5.1,    5.2,    5.0,    4.7,    4.1,    4.8,    5.8,    5.7,    4.7,    5.0,    5.0,    5.4,    6.4,    5.7,    5.7,    3.6,  999.0,  999.0,  999.0,  999.0,  999.0,  999.0,  999.0,  999.0,  999.0
2006/02/11 22:10,    2.3,    2.4,    3.5,    4.4,    4.6,    5.0,    4.5,    4.8,    4.9,    4.9,    4.6,    5.3,    6.5,    6.6,    6.5,    5.8,    6.1,    5.7,    5.7,    5.0,  999.0,  999.0,  999.0,  999.0,  999.0,  999.0,  999.0,  999.0,  999.0,  999.0
2006/02/11 22:20,    2.2,    1.5,    2.2,    3.2,    3.1,    3.6,    5.0,    5.7,    5.5,    5.5,    5.2,    4.2,    4.5,    4.5,    4.8,    4.7,    4.9,    5.6,    5.0,    8.2,    8.1,    6.3,    6.9,    6.8,    6.0,    5.3,    5.3,    5.9,    5.6,    5.0
2006/02/11 22:30,    1.9,    1.5,    2.3,    3.1,    3.0,    3.5,    4.7,    4.0,    4.6,    4.1,    4.0,    3.5,    3.7,    4.3,    3.7,    3.8,    5.3,    5.3,    5.7,  999.0,  999.0,    7.4,    7.2,    7.3,    6.3,    6.1,    6.4,    7.1,    6.1,    5.3
2006/02/11 22:40,    1.8,    1.8,    2.3,    2.9,    2.7,    3.6,    4.2,    3.6,    2.7,    3.3,    3.3,    3.7,    3.3,    3.1,    3.4,    3.8,    4.5,    4.7,    4.0,    5.6,  999.0,  999.0,    6.3,    7.8,    7.9,    6.8,    6.4,    6.5,    5.8,    5.5
2006/02/11 22:50,    0.9,    1.8,    1.9,    2.4,    2.7,    2.9,    3.4,    3.4,    3.1,    2.8,    3.1,    3.9,    4.7,    4.9,    4.9,    4.9,    4.5,    4.0,    4.3,    4.2,    5.3,  999.0,    6.5,    7.2,    7.8,    8.2,    7.6,    7.3,    6.2,    5.3
2006/02/11 23:00,    1.2,    1.4,    1.8,    2.4,    2.5,    3.1,    3.5,    2.0,    2.8,    3.5,    4.3,    4.2,    3.9,    4.5,    4.5,    5.0,    5.0,    3.8,    3.8,    4.8,    5.8,  999.0,    6.4,    7.5,    8.5,    7.8,    8.5,    6.8,    6.6,    5.3
2006/02/11 23:10,    0.3,    0.1,    1.2,    0.7,    0.8,    1.8,    2.3,    2.5,    3.3,    3.3,    2.8,    4.3,    4.3,    5.3,    6.1,    5.3,    4.5,    4.8,    5.7,    6.9,    7.0,    6.9,    6.4,    7.5,    8.1,    8.6,    8.0,    8.8,    5.7,    4.4
2006/02/11 23:20,    0.7,    1.0,    1.6,    1.8,    2.0,    2.2,    3.0,    4.6,    7.8,    5.7,    6.2,    4.3,   -0.2,    1.2,    5.3,    4.6,    5.6,    3.6,    6.4,    6.9,    6.9,    6.2,    6.8,    6.6,    8.3,    8.7,    8.9,    8.6,    6.5,    4.3
2006/02/11 23:30,    0.1,    0.4,    2.1,    1.0,    1.0,  999.0,    8.3,  999.0,  999.0,  999.0,    3.8,    3.0,    0.9,    5.8,    4.9,    3.7,    8.1,    8.9,    9.1,    8.4,    7.5,    6.8,    6.8,    6.7,    8.8,    8.9,    8.0,    7.9,    6.1,    4.5
2006/02/11 23:40,    1.7,    3.0,    3.1,    1.2,    2.5,    3.1,    3.7,    2.9,    1.1,    1.5,    1.8,    2.1,    5.2,    6.1,    5.3,    6.2,    5.8,    8.9,    7.6,    5.3,    5.5,    6.5,    6.8,    6.5,    7.7,    7.9,    6.5,  999.0,    7.7,    5.2
2006/02/11 23:50,  999.0,  999.0,  999.0,  999.0,  999.0,    2.5,  999.0,    2.7,  999.0,  999.0,  999.0,  999.0,  999.0,  999.0,  999.0,  999.0,  999.0,  999.0,  999.0,  999.0,  999.0,    6.7,    7.1,    6.3,    6.2,    7.4,    7.7,  999.0,  999.0,  999.0
